Waarnemingen

Advertentie
Mijn weer
Avignon, Frankrijk (7563): temperatuur & dauwpunt: 19.02.2018 20:00:00 - 25.02.2018 20:00:00 (CET)Avignon, Frankrijk (7563): temperatuur 5cm: 19.02.2018 20:00:00 - 25.02.2018 20:00:00 (CET)Avignon, Frankrijk (7563): windsnelheid & windstoten: 19.02.2018 20:00:00 - 25.02.2018 20:00:00 (CET)Avignon, Frankrijk (7563): windrichting: 19.02.2018 20:00:00 - 25.02.2018 20:00:00 (CET)Avignon, Frankrijk (7563): luchtdruk: 19.02.2018 20:00:00 - 25.02.2018 20:00:00 (CET)Avignon, Frankrijk (7563): zicht: 19.02.2018 20:00:00 - 25.02.2018 20:00:00 (CET)Avignon, Frankrijk (7563): neerslag: 19.02.2018 20:00:00 - 25.02.2018 20:00:00 (CET)
Datum & Tijd tt [°C] td [°C] tt 5cm [°C] ff [km/u] ff [kn] fx [km/u] fx [kn] dd ppp [hPa] vv [km] rr [mm]
25.02.2018 20:00:00 2,5 -6,4 1,5 48 26 81 44 N 1008,7 19 0,0
25.02.2018 19:00:00 2,6 -5,8 1,7 60 33 85 46 N 1007,4 17 0,0
25.02.2018 18:00:00 3,1 -5,3 3,0 44 24 73 40 N 1007,7 15 0,0
25.02.2018 17:00:00 4,4 -4,9 6,2 48 26 76 41 N 1008,0 13 0,0
25.02.2018 16:00:00 5,8 -4,1 9,0 40 22 64 35 NNW 1007,6 13 0,0
25.02.2018 15:00:00 6,9 -2,8 11,3 41 22 64 35 N 1007,5 12 0,0
25.02.2018 14:00:00 7,2 -2,8 12,0 34 18 61 33 N 1007,9 10 0,0
25.02.2018 13:00:00 7,9 -1,9 12,7 38 21 59 32 NNW 1008,4 11 0,0
25.02.2018 12:00:00 7,9 -1,4 11,1 28 15 51 27 N 1009,3 10 0,0
25.02.2018 11:00:00 7,1 -1,6 9,6 32 17 52 28 N 1009,4 9 0,0
25.02.2018 10:00:00 6,0 -1,6 4,6 25 13 39 21 N 1009,6 9 0,0
25.02.2018 09:00:00 4,1 -1,5 3,1 23 12 40 22 N 1009,7 8 0,0
25.02.2018 08:00:00 3,6 -1,4 2,8 19 10 35 19 N 1009,6 7 0,0
25.02.2018 07:00:00 3,9 -0,9 2,7 16 9 23 13 N 1009,4 6 0,2
25.02.2018 06:00:00 3,7 -0,1 2,7 10 5 24 13 N 1009,4 6 0,2
25.02.2018 05:00:00 4,5 -1,5 3,8 14 8 22 12 N 1009,3 7 0,0
25.02.2018 04:00:00 4,5 -1,9 3,7 12 7 27 15 N 1009,2 8 0,0
25.02.2018 03:00:00 4,4 -1,8 3,4 21 11 33 18 N 1009,1 8 0,0
25.02.2018 02:00:00 4,3 -1,9 3,0 15 8 32 17 N 1009,3 7 0,0
25.02.2018 01:00:00 4,0 -2,2 2,7 19 10 34 19 N 1009,5 7 0,0
25.02.2018 00:00:00 3,8 -2,2 2,3 18 10 31 17 N 1009,5 7 0,0
24.02.2018 23:00:00 4,2 -2,0 2,8 18 10 33 18 N 1009,5 7 0,0
24.02.2018 22:00:00 4,5 -1,7 3,3 21 11 37 20 N 1009,5 7 0,0
24.02.2018 21:00:00 5,5 -1,7 4,0 21 11 40 22 N 1009,3 8 0,0
24.02.2018 20:00:00 5,9 -0,2 3,7 20 11 29 16 N 1009,4 7 0,0
24.02.2018 19:00:00 4,3 3,0 3,8 0 0 7 4 N 1009,2 2,7 0,0
24.02.2018 18:00:00 4,7 3,0 4,3 0 0 8 4 N 1008,8 3,5 0,0
24.02.2018 17:00:00 5,1 2,8 5,1 4 2 6 3 ZZW 1008,6 3,5 0,0
24.02.2018 16:00:00 5,7 2,3 6,1 4 2 6 4 Z 1008,7 5 0,0
24.02.2018 15:00:00 6,1 1,2 5,9 2 1 8 4 W 1008,7 7 0,2
24.02.2018 14:00:00 5,6 1,1 5,8 5 3 19 10 N 1009,1 6 0,6
24.02.2018 13:00:00 5,5 0,3 5,8 6 3 18 10 NO 1009,1 6 0,2
24.02.2018 12:00:00 4,6 -0,2 5,6 12 7 19 10 NNO 1009,3 7 0,0
24.02.2018 11:00:00 3,8 -0,8 4,2 11 6 21 12 N 1009,0 6 0,0
24.02.2018 10:00:00 3,8 -3,0 3,9 14 8 29 16 N 1008,8 8 0,0
24.02.2018 09:00:00 3,4 -3,2 2,8 12 6 31 17 N 1008,6 8 0,0
24.02.2018 08:00:00 3,1 -3,5 2,8 19 10 31 17 N 1007,9 8 0,0
24.02.2018 07:00:00 3,1 -3,7 2,8 17 9 34 19 N 1007,5 9 0,0
24.02.2018 06:00:00 3,2 -3,4 2,7 21 11 34 19 N 1006,9 9 0,0
24.02.2018 05:00:00 3,2 -3,4 2,5 14 8 30 16 N 1006,8 9 0,0
24.02.2018 04:00:00 3,1 -3,5 2,6 22 12 34 19 N 1006,6 9 0,0
24.02.2018 03:00:00 3,1 -3,3 2,5 20 11 34 19 N 1007,0 9 0,0
24.02.2018 02:00:00 3,2 -3,4 2,4 18 10 38 21 N 1007,2 10 0,0
24.02.2018 01:00:00 3,2 -3,4 2,5 20 11 42 23 N 1007,0 10 0,0
24.02.2018 00:00:00 3,3 -3,5 2,6 25 14 38 21 N 1006,9 10 0,0
23.02.2018 23:00:00 3,3 -3,5 2,0 25 13 42 23 N 1007,0 10 0,0
23.02.2018 22:00:00 3,3 -4,0 2,1 27 14 43 23 N 1007,0 10 0,0
23.02.2018 21:00:00 3,5 -4,0 2,6 26 14 41 22 N 1006,9 10 0,0
23.02.2018 20:00:00 3,8 -3,9 2,9 27 14 45 25 N 1006,8 10 0,0
23.02.2018 19:00:00 4,3 -4,0 3,1 24 13 41 22 N 1006,4 11 0,0
23.02.2018 18:00:00 5,5 -4,1 5,4 24 13 45 24 N 1006,0 12 0,0
23.02.2018 17:00:00 7,0 -3,8 9,2 31 17 44 24 N 1005,7 12 0,0
23.02.2018 16:00:00 8,2 -3,3 12,6 29 16 44 24 N 1005,4 12 0,0
23.02.2018 15:00:00 8,5 -2,8 9,0 26 14 44 24 N 1005,6 12 0,0
23.02.2018 14:00:00 7,7 -2,9 10,2 32 18 48 26 N 1005,9 12 0,0
23.02.2018 13:00:00 6,8 -2,9 8,0 33 18 49 26 N 1006,6 11 0,0
23.02.2018 12:00:00 5,2 -3,9 6,1 29 16 48 26 N 1006,9 11 0,0
23.02.2018 11:00:00 4,1 -3,9 5,7 29 15 46 25 N 1006,9 10 0,0
23.02.2018 10:00:00 4,2 -3,3 2,6 24 13 49 27 N 1006,7 9 0,0
23.02.2018 09:00:00 2,1 -3,8 0,2 26 14 41 22 N 1006,5 8 0,0
23.02.2018 08:00:00 0,9 -4,3 -0,8 23 12 40 22 N 1006,1 8 0,0
23.02.2018 07:00:00 0,6 -4,4 -0,7 24 13 41 22 N 1006,1 8 0,0
23.02.2018 06:00:00 0,5 -4,5 -0,9 24 13 39 21 N 1005,9 8 0,0
23.02.2018 05:00:00 0,3 -4,5 -1,2 21 11 36 19 N 1006,1 8 0,0
23.02.2018 04:00:00 0,5 -4,5 -0,7 22 12 36 19 N 1006,4 8 0,0
23.02.2018 03:00:00 0,5 -4,5 -1,0 18 10 36 19 N 1007,0 8 0,0
23.02.2018 02:00:00 0,9 -4,5 -0,6 22 12 37 20 N 1007,3 9 0,0
23.02.2018 01:00:00 1,3 -4,6 0,1 24 13 42 23 N 1007,5 9 0,0
23.02.2018 00:00:00 1,5 -4,4 0,3 23 12 39 21 N 1007,6 9 0,0
22.02.2018 23:00:00 1,8 -4,5 0,6 27 14 48 26 N 1007,7 9 0,0
22.02.2018 22:00:00 2,0 -4,5 0,9 27 14 50 27 N 1007,5 10 0,0
22.02.2018 21:00:00 2,3 -4,5 1,2 34 18 51 27 N 1007,3 10 0,0
22.02.2018 20:00:00 2,7 -4,5 1,6 34 18 56 30 N 1007,2 10 0,0
22.02.2018 19:00:00 3,1 -4,1 2,1 24 13 51 28 N 1007,0 10 0,0
22.02.2018 18:00:00 4,3 -3,5 3,8 30 16 55 30 N 1006,3 10 0,0
22.02.2018 17:00:00 5,2 -3,1 5,5 31 17 46 25 N 1006,2 10 0,0
22.02.2018 16:00:00 5,7 -3,1 6,5 26 14 43 23 N 1006,0 10 0,0
22.02.2018 15:00:00 6,1 -3,0 7,5 30 16 45 24 N 1005,9 11 0,0
22.02.2018 14:00:00 6,7 -2,7 9,3 25 14 43 23 N 1005,9 10 0,0
22.02.2018 13:00:00 7,1 -2,4 9,1 28 15 41 22 N 1006,0 11 0,0
22.02.2018 12:00:00 6,7 -2,7 10,4 29 15 45 25 N 1006,1 9 0,0
22.02.2018 11:00:00 5,8 -2,8 7,3 30 16 44 24 N 1006,3 9 0,0
22.02.2018 10:00:00 4,1 -3,4 4,7 30 16 49 26 N 1006,1 9 0,0
22.02.2018 09:00:00 2,9 -3,7 1,3 29 15 51 28 N 1006,1 8 0,0
22.02.2018 08:00:00 1,9 -3,8 0,6 29 16 49 27 N 1006,0 8 0,0
22.02.2018 07:00:00 1,9 -4,0 0,7 29 16 50 27 N 1005,9 9 0,0
22.02.2018 06:00:00 2,1 -3,8 0,9 27 15 45 24 N 1006,1 8 0,0
22.02.2018 05:00:00 2,5 -3,6 1,3 26 14 46 25 N 1006,4 9 0,0
22.02.2018 04:00:00 2,6 -3,5 1,4 26 14 46 25 N 1006,6 10 0,0
22.02.2018 03:00:00 2,9 -3,7 1,4 28 15 46 25 N 1007,1 12 0,0
22.02.2018 02:00:00 2,9 -4,1 1,6 24 13 49 26 N 1007,7 17 0,0
22.02.2018 01:00:00 3,4 -4,1 2,1 29 16 56 30 N 1007,7 17 0,0
22.02.2018 00:00:00 3,6 -4,4 2,6 36 20 55 30 N 1007,7 17 0,0
21.02.2018 23:00:00 3,7 -4,0 2,6 37 20 58 31 N 1008,1 15 0,0
21.02.2018 22:00:00 3,7 -4,0 2,7 41 22 60 32 N 1008,1 15 0,0
21.02.2018 21:00:00 4,0 -4,0 2,8 39 21 61 33 N 1008,2 16 0,0
21.02.2018 20:00:00 4,0 -4,2 3,1 40 22 65 35 N 1008,1 17 0,0
21.02.2018 19:00:00 4,3 -3,7 3,2 40 22 69 37 N 1008,3 15 0,0
21.02.2018 18:00:00 4,8 -4,0 4,4 42 23 74 40 N 1007,9 14 0,0
21.02.2018 17:00:00 6,0 -3,9 8,0 44 24 70 38 N 1008,2 16 0,0
21.02.2018 16:00:00 7,0 -4,1 10,3 41 22 67 36 N 1008,5 13 0,0
21.02.2018 15:00:00 7,2 -4,0 11,1 45 25 80 43 N 1008,7 12 0,0
21.02.2018 14:00:00 7,5 -3,7 10,8 42 23 74 40 N 1009,3 12 0,0
21.02.2018 13:00:00 6,8 -4,0 10,6 42 23 70 38 N 1009,6 12 0,0
21.02.2018 12:00:00 6,3 -3,9 9,3 40 21 63 34 N 1010,0 11 0,0
21.02.2018 11:00:00 5,3 -3,8 7,3 33 18 59 32 N 1009,8 12 0,0
21.02.2018 10:00:00 3,6 -4,1 2,8 37 20 61 33 N 1009,1 12 0,0
21.02.2018 09:00:00 2,4 -4,1 1,8 31 17 58 32 N 1009,1 13 0,0
21.02.2018 08:00:00 2,1 -4,0 0,9 40 22 64 35 N 1008,3 13 0,0
21.02.2018 07:00:00 1,8 -4,1 1,0 43 23 73 39 N 1007,6 13 0,0
21.02.2018 06:00:00 2,0 -3,9 1,1 42 23 71 38 N 1007,5 14 0,0
21.02.2018 05:00:00 2,3 -4,0 1,5 42 23 90 49 N 1007,3 14 0,0
21.02.2018 04:00:00 3,0 -4,0 2,1 49 27 90 48 N 1008,4 15 0,0
21.02.2018 03:00:00 3,8 -3,9 2,9 50 27 82 45 N 1008,3 16 0,0
21.02.2018 02:00:00 4,2 -4,1 3,3 44 24 74 40 N 1009,0 18 0,0
21.02.2018 01:00:00 4,7 -3,8 3,6 35 19 67 36 N 1009,8 18 0,0
21.02.2018 00:00:00 5,3 -3,3 4,3 41 22 71 39 N 1009,3 20 0,0
20.02.2018 23:00:00 5,8 -3,8 4,7 39 21 67 36 N 1009,7 26 0,0
20.02.2018 22:00:00 6,4 -3,6 5,2 39 21 70 38 N 1010,2 31 0,0
20.02.2018 21:00:00 7,0 -4,7 5,7 41 22 71 38 N 1009,8 35 0,0
20.02.2018 20:00:00 7,3 -6,8 6,0 42 23 75 41 N 1009,6 48 0,0
20.02.2018 19:00:00 8,1 -5,7 6,7 39 21 64 34 N 1009,1 59 0,0
20.02.2018 18:00:00 8,9 -5,8 8,5 38 21 76 41 N 1008,4 30 0,0
20.02.2018 17:00:00 9,3 -3,6 9,2 36 19 68 37 N 1008,1 28 0,0
20.02.2018 16:00:00 10,8 -4,5 14,1 40 22 76 41 N 1008,2 29 0,0
20.02.2018 15:00:00 11,1 -4,6 9,0 48 26 70 38 N 1008,3 45 0,0
20.02.2018 14:00:00 8,7 -4,5 9,0 37 20 66 35 N 1008,7 42 0,0
20.02.2018 13:00:00 10,3 -3,1 12,8 42 23 63 34 N 1009,4 47 0,0
20.02.2018 12:00:00 8,9 -1,5 8,8 37 20 68 37 N 1009,9 20 0,0
20.02.2018 11:00:00 7,1 -1,6 7,3 37 20 57 31 N 1010,2 54 0,0
20.02.2018 10:00:00 6,6 -1,3 6,6 31 17 58 31 N 1010,5 29 0,0
20.02.2018 09:00:00 6,1 -1,1 5,0 31 17 53 29 N 1010,7 28 0,0
20.02.2018 08:00:00 5,2 -1,5 3,7 29 16 49 26 N 1010,7 25 0,0
20.02.2018 07:00:00 4,7 -1,8 3,3 27 14 44 24 N 1010,7 27 0,0
20.02.2018 06:00:00 4,8 -2,1 3,4 19 10 35 19 N 1011,0 27 0,0
20.02.2018 05:00:00 4,5 -2,2 3,1 22 12 54 29 NNW 1011,4 28 0,0
20.02.2018 04:00:00 4,4 -2,3 2,2 20 11 40 22 NNW 1011,7 27 0,0
20.02.2018 03:00:00 4,3 -3,0 2,6 24 13 48 26 N 1012,6 31 0,0
20.02.2018 02:00:00 4,9 -2,5 3,5 29 16 61 33 NNW 1012,5 30 0,0
20.02.2018 01:00:00 5,6 -2,3 4,6 42 23 58 31 N 1012,3 31 0,0
20.02.2018 00:00:00 6,1 -2,0 4,2 34 19 51 27 N 1012,9 29 0,0
19.02.2018 23:00:00 6,0 -2,4 3,9 26 14 43 23 N 1013,5 30 0,0
19.02.2018 22:00:00 5,8 -2,3 3,7 21 11 32 17 NNW 1013,9 31 0,0
19.02.2018 21:00:00 6,2 -1,9 4,6 25 14 40 22 N 1014,0 25 0,0
19.02.2018 20:00:00 6,7 -2,5 4,9 22 12 39 21 NNW 1014,3 38 0,0

tt = temperatuur
td = dauwpunt
tt 5cm = temperatuur 5cm
ff = windsnelheid
fx = windstoten
dd = windrichting
ppp = luchtdruk
vv = zicht
rr = neerslag

Weerstations in de omgeving